THORAD AGENA D DEB, 4653

Orbit data source: Space-Track

THORAD AGENA D DEB, 4653 is space debris in SSO originally from a launch on Wed, 08 Apr 1970 UTC launched from the Air Force Western Test Range (AFWTR). Debris objects in space refer to the collection of defunct objects orbiting the Earth. Examples of debris include non-operational satellites, rocket bodies, and fragments generated from explosions, collisions, or faulty payload assembly.

Loading next visibility...
Identifier
4653, 1970-025AM
Orbit
SSO
Country
Flag of USUS
Related business
Manufacturer
Unknown
Mission
Spacecraft
Bus & Motor
Unknown
Mass
Unknown
Launch date (UTC)
1970-04-08 (56 years ago)
Launch vehicle
Unknown
Launch site
Air Force Western Test Range (AFWTR)
Object type
Payload
Rocket body
Debris
Shape & HBR
Unknown shape, 0.1 m
Radar Cross Section
Medium (>0.1 m² and <1 m²)

Expand to show TLE details & history
Last TLE update: 13 hours ago

TLE from 13 hours ago
0 THORAD AGENA D DEB
1 04653U 70025AM  26265.44319544  .00007533  00000-0  12759-2 0  9991
2 04653  99.9968 242.4821 0012316   1.2884 358.8345 14.69623452881486
Epoch: 2026-09-22T10:38Z
TLE epoch observation values (Epoch: 2026-09-22T10:38:12.086Z)
Latitude
0.00001°
Longitude
81.62314°
Altitude
656.536 km
Speed
7.534 km/s
True Right ascension
16h 09m 55s
True Declination
0° 00' 00"
Sunlit
Object was in daylight at epoch
Visualization orbit readout
Latitude
Unknown
Longitude
Unknown
Altitude
Unknown
Speed
Unknown
Apparent Right ascension
Unknown
Apparent Declination
Unknown
Sunlit
N/A
Visualization observer readout
Local Sidereal Time
16:50:47
Azimuth
Unknown
Elevation
Unknown
Doppler factor
Unknown
Orbital elements
Apogee altitude
668.098 km
Perigee altitude
650.763 km
Semi-major axis
7,037.568 km
Eccentricity
0.00123
Inclination
99.9968°
RAAN
242.4821°
Arg. of periapsis
1.2884°
True anomaly
358.83162°
Mean anomaly
358.8345°
Eccentric anomaly
358.83306°
Mean motion
3.67629 °/min
Orbital period
97.92 mins
BSTAR
0.0012759

Documentation

Showing up to 5 results
|